"Pseudo-MPEC" for P12oAiD

Created 2026 Jul 26 18:35:08 UT using Find_Orb

Click here for an explanation of pseudo-MPECs

 
 Astrometry: 
     P12oAiD 0C2026 07 16.55058721 48 11.817+03 30 34.62   ~7OIZ 21.68wXNEOCPF51
     P12oAiD 0C2026 07 16.56420621 48 11.817+03 30 42.53   ~7OIZ 21.82wXNEOCPF51
     P12oAiD 0C2026 07 16.57773021 48 11.821+03 30 50.36   ~7OIZ 21.88wXNEOCPF51
     P12oAiD*0C2026 07 23.45906521 48 01.708+04 32 37.10   ~7NF5 21.75wXNEOCPF51
     P12oAiD 0C2026 07 23.47130821 48 01.567+04 32 43.12   ~7NF5 21.73wXNEOCPF51
     P12oAiD 0C2026 07 23.48370621 48 01.423+04 32 49.29   ~7NF5 21.75wXNEOCPF51
     P12oAiD 0C2026 07 23.49634321 48 01.282+04 32 55.42   ~7NF5 21.67wXNEOCPF51
     P12oAiD 0C2026 07 23.59856521 48 00.142+04 33 45.39   ~7O15 21.55GVNEOCPF51
     P12oAiD 0C2026 07 23.59921221 48 00.136+04 33 45.81   ~7O15 21.26GVNEOCPF51
     P12oAiD 1C2026 07 24.43273021 47 54.083+04 40 28.87   ~7OH5 22.00GVNEOCPT12
     P12oAiD 1C2026 07 24.43427421 47 54.070+04 40 29.63   ~7OH5 22.12GVNEOCPT12
     P12oAiD 1C2026 07 24.43581821 47 54.050+04 40 30.27   ~7OH5 21.89GVNEOCPT12

Station data:
(F51) Pan-STARRS 1, Haleakala  (N20.707234 W156.255910)  US/Hawaii.
   Observers J. Herman, T. Lowe, P. Minguez, A. Schultz, I. Smith. Measurers
   K. Chambers, T. de Boer, J. Fairlamb, H. Gao, M. Huber, C.-C. Lin, E.
   Magnier, Y. Ramanjooloo, R. Wainscoat, R. Weryk. 1.8-m Ritchey-Chrétien +
   CCD.
(T12) Mauna Kea-UH/Tholen NEO Follow-Up (2.24-m)  (N19.822991 W155.469434)
   US/Hawaii.  Observer R. Weryk. 2.24-m f/10.1 University of Hawaii
   reflector.

Orbital elements:  P12oAiD
   Perihelion 2026 Oct 22.217119 +/- 0.495 TT =  5:12:39.1 (JD 2461335.717119)
Epoch 2026 Jul 24.0 TT = JDT 2461245.5   Earth MOID: 0.6123      AutoNEOCP
M 339.732397978 +/- 0.17            (J2000 ecliptic)
n   0.224653615 +/- 0.000904        Peri.  130.022194 +/- 0.50
a   2.679952569 +/- 0.00719         Node   232.560076 +/- 0.15
e   0.40291408 +/- 0.000863         Incl.    7.955942 +/- 0.010
P   4.38723                H 19.92  G  0.15   U  8.0
q 1.600161923 +/- 0.00326    Q 3.759743215 +/- 0.0117
From 12 observations 2026 July 16-24; mean residual 0".04
Residuals in arcseconds: 
260716 F51  .07+  .02+    260723 F51  .00   .01-    260723 F51  .05+  .04+    
260716 F51  .02-  .01+    260723 F51  .08-  .06+    260724 T12  .06-  .02+    
260716 F51  .05-  .02-    260723 F51  .05-  .03-    260724 T12  .03+  .04+    
260723 F51  .07+  .00     260723 F51  .03+  .06-    260724 T12  .02+  .06-    

Ephemerides (geocentric):
Date (UTC) HH   RA             Dec           delta  r     elong  mag " sig PA
---- --------  ------------   ------------  ------ ------ -----  --- --------
2026 07 26 19  21 47 28.984   +04 58 33.70  .81704 1.7623 148.0 21.6 .414  79
2026 07 26 20  21 47 28.468   +04 58 52.02  .81675 1.7622 148.0 21.6 .423  79
2026 07 26 21  21 47 27.950   +04 59 10.30  .81647 1.7621 148.0 21.6 .431  79
2026 07 26 22  21 47 27.429   +04 59 28.56  .81619 1.7619 148.1 21.6 .440  79
2026 07 26 23  21 47 26.905   +04 59 46.79  .81590 1.7618 148.1 21.6 .449  79
2026 07 27 00  21 47 26.379   +05 00 04.99  .81562 1.7616 148.1 21.6 .458  79
2026 07 27 01  21 47 25.850   +05 00 23.16  .81534 1.7615 148.2 21.6 .467  79
2026 07 27 02  21 47 25.319   +05 00 41.31  .81506 1.7614 148.2 21.6 .476  79
2026 07 27 03  21 47 24.785   +05 00 59.42  .81478 1.7612 148.2 21.6 .485  79
2026 07 27 04  21 47 24.248   +05 01 17.51  .81449 1.7611 148.3 21.6 .494  79
2026 07 27 05  21 47 23.708   +05 01 35.57  .81421 1.7609 148.3 21.6 .503  79
2026 07 27 06  21 47 23.166   +05 01 53.60  .81393 1.7608 148.3 21.6 .512  79
2026 07 27 07  21 47 22.622   +05 02 11.60  .81365 1.7606 148.3 21.6 .522  79
2026 07 27 08  21 47 22.074   +05 02 29.57  .81337 1.7605 148.4 21.6 .531  79
2026 07 27 09  21 47 21.525   +05 02 47.51  .81309 1.7604 148.4 21.6 .540  79
2026 07 27 10  21 47 20.972   +05 03 05.42  .81281 1.7602 148.4 21.6 .550  79
2026 07 27 11  21 47 20.417   +05 03 23.31  .81253 1.7601 148.5 21.6 .559  79
2026 07 27 12  21 47 19.859   +05 03 41.17  .81225 1.7599 148.5 21.6 .569  79
2026 07 27 13  21 47 19.299   +05 03 58.99  .81197 1.7598 148.5 21.6 .579  79
2026 07 27 14  21 47 18.736   +05 04 16.79  .81170 1.7597 148.6 21.6 .588  79
2026 07 27 15  21 47 18.170   +05 04 34.56  .81142 1.7595 148.6 21.6 .598  79
2026 07 27 16  21 47 17.602   +05 04 52.30  .81114 1.7594 148.6 21.6 .608  79
2026 07 27 17  21 47 17.031   +05 05 10.01  .81086 1.7592 148.6 21.6 .618  79
2026 07 27 18  21 47 16.458   +05 05 27.69  .81058 1.7591 148.7 21.6 .628  78
2026 07 27 19  21 47 15.882   +05 05 45.35  .81031 1.7590 148.7 21.6 .638  78
2026 07 27 20  21 47 15.303   +05 06 02.97  .81003 1.7588 148.7 21.6 .648  78
2026 07 27 21  21 47 14.722   +05 06 20.56  .80975 1.7587 148.8 21.6 .659  78
2026 07 27 22  21 47 14.138   +05 06 38.13  .80948 1.7585 148.8 21.6 .669  78
2026 07 27 23  21 47 13.552   +05 06 55.67  .80920 1.7584 148.8 21.6 .679  78
2026 07 28 00  21 47 12.963   +05 07 13.17  .80893 1.7583 148.9 21.6 .690  78
2026 07 28 01  21 47 12.371   +05 07 30.65  .80865 1.7581 148.9 21.6 .700  78
2026 07 28 02  21 47 11.777   +05 07 48.10  .80837 1.7580 148.9 21.6 .711  78
2026 07 28 03  21 47 11.180   +05 08 05.51  .80810 1.7578 148.9 21.6 .721  78
2026 07 28 04  21 47 10.581   +05 08 22.90  .80783 1.7577 149.0 21.6 .732  78
2026 07 28 05  21 47 09.979   +05 08 40.26  .80755 1.7576 149.0 21.6 .743  78
2026 07 28 06  21 47 09.374   +05 08 57.59  .80728 1.7574 149.0 21.6 .754  78
2026 07 28 07  21 47 08.767   +05 09 14.89  .80700 1.7573 149.1 21.6 .765  78
2026 07 28 08  21 47 08.157   +05 09 32.16  .80673 1.7571 149.1 21.6 .775  78
2026 07 28 09  21 47 07.545   +05 09 49.40  .80646 1.7570 149.1 21.6 .786  78
2026 07 28 10  21 47 06.930   +05 10 06.62  .80618 1.7569 149.2 21.6 .798  78
2026 07 28 11  21 47 06.313   +05 10 23.80  .80591 1.7567 149.2 21.6 .809  78
2026 07 28 12  21 47 05.693   +05 10 40.95  .80564 1.7566 149.2 21.6 .820  78
2026 07 28 13  21 47 05.070   +05 10 58.07  .80536 1.7564 149.2 21.6 .831  78
2026 07 28 14  21 47 04.445   +05 11 15.16  .80509 1.7563 149.3 21.6 .843  78
2026 07 28 15  21 47 03.818   +05 11 32.23  .80482 1.7562 149.3 21.6 .854  78
2026 07 28 16  21 47 03.187   +05 11 49.26  .80455 1.7560 149.3 21.6 .865  78
2026 07 28 17  21 47 02.554   +05 12 06.26  .80428 1.7559 149.4 21.6 .877  78
2026 07 28 18  21 47 01.919   +05 12 23.23  .80401 1.7557 149.4 21.6 .889  78